1998-067WL (59561 NORAD) Tracking and Keplerian Element Data

This shows tracking and keplerian element data for the satellite.

Feedback or suggestion? Click here.




ElementValue
Catalog59561
Name1998-067WL
Epoch Orbit784
Epoch Day159.84319494
Epoch Year2024
RAAN0.7399
Inclination51.6369
Eccentricity0.0003659
Argument of Perigee239.6561
Mean Anonmoly120.4069
Mean Motion15.55325627
Decay Rate0.00050603
L11 59561U 98067WL 24159.84319494 .00050603 00000+0 73384-3 0 9990
L22 59561 51.6369 0.7399 0003659 239.6561 120.4069 15.55325627 7843



Live tracking and technical data element details for 1998-067WL (NORAD 59561). 1998-067WL can be tracked NOW for your location showing map with azimuth and elevation plus other details from your city location.







IsCatalogInMostPopularTable: catalog: 59561, numindb: 13
Update: records affected: 1



GetName: 59561 1998-067WL

Hit Count: updated at: Fri, 14 Jun 2024 18:57:47 GMT